TimeEST,TemperatureF,Dew PointF,Humidity,Sea Level PressureIn,VisibilityMPH,Wind Direction,Wind SpeedMPH,Gust SpeedMPH,PrecipitationIn,Events,Conditions,WindDirDegrees,DateUTC
12:53 AM,19.0,12.9,77,29.53,10.0,West,4.6,-,N/A,,Overcast,270,2013-01-05 05:53:00
1:53 AM,19.0,14.0,81,29.54,7.0,SW,4.6,-,0.00,Snow,Light Snow,220,2013-01-05 06:53:00
2:23 AM,19.4,15.8,86,29.49,1.8,WSW,4.6,-,0.00,Snow,Light Snow,240,2013-01-05 07:23:00
2:32 AM,19.4,15.8,86,29.50,1.5,WSW,3.5,-,0.00,Snow,Light Snow,240,2013-01-05 07:32:00
2:44 AM,19.4,15.8,86,29.50,2.0,Calm,Calm,-,0.00,Snow,Light Snow,0,2013-01-05 07:44:00
2:53 AM,19.0,16.0,88,29.55,2.0,Calm,Calm,-,0.00,Snow,Light Snow,0,2013-01-05 07:53:00
3:10 AM,17.6,15.8,93,29.50,2.5,WNW,4.6,-,0.00,Snow,Light Snow,290,2013-01-05 08:10:00
3:23 AM,19.4,15.8,86,29.51,1.8,WNW,5.8,-,0.00,Snow,Light Snow,300,2013-01-05 08:23:00
3:34 AM,19.4,15.8,86,29.51,2.0,WNW,4.6,-,0.00,Snow,Light Snow,300,2013-01-05 08:34:00
3:53 AM,19.0,16.0,88,29.56,1.5,WNW,8.1,-,0.01,Snow,Light Snow,290,2013-01-05 08:53:00
4:17 AM,19.4,15.8,86,29.52,2.0,West,6.9,-,0.00,Snow,Light Snow,270,2013-01-05 09:17:00
4:29 AM,19.4,15.8,86,29.52,3.0,West,6.9,-,0.00,Snow,Light Snow,270,2013-01-05 09:29:00
4:53 AM,18.0,16.0,92,29.58,7.0,West,5.8,-,0.00,Snow,Light Snow,280,2013-01-05 09:53:00
5:24 AM,19.4,15.8,86,29.56,2.0,WNW,5.8,-,0.00,Snow,Light Snow,300,2013-01-05 10:24:00
5:36 AM,17.6,15.8,93,29.57,2.5,NW,6.9,-,0.00,Snow,Light Snow,310,2013-01-05 10:36:00
5:46 AM,17.6,15.8,93,29.58,1.5,NW,8.1,-,0.00,Snow,Light Snow,320,2013-01-05 10:46:00
5:50 AM,19.4,15.8,86,29.59,1.0,NNW,9.2,-,0.00,Snow,Light Snow,330,2013-01-05 10:50:00
5:53 AM,18.0,15.1,88,29.64,1.0,NNW,19.6,25.3,0.00,Snow,Light Snow,330,2013-01-05 10:53:00
6:03 AM,17.6,12.2,79,29.61,1.8,NNW,20.7,34.5,0.00,Snow,Light Snow,330,2013-01-05 11:03:00
6:13 AM,15.8,10.4,79,29.62,1.2,NNW,33.4,42.6,0.00,Snow,Light Snow,330,2013-01-05 11:13:00
6:19 AM,15.8,8.6,73,29.62,1.8,NW,18.4,42.6,0.00,Snow,Light Snow,320,2013-01-05 11:19:00
6:22 AM,15.8,8.6,73,29.63,3.0,NW,17.3,39.1,0.00,Snow,Light Snow,310,2013-01-05 11:22:00
6:53 AM,14.0,7.0,74,29.72,8.0,WNW,18.4,28.8,0.00,,Overcast,290,2013-01-05 11:53:00
7:42 AM,12.2,3.2,67,29.74,10.0,NW,18.4,24.2,0.00,,Overcast,320,2013-01-05 12:42:00
7:53 AM,10.9,3.0,70,29.80,10.0,NW,20.7,26.5,0.00,,Overcast,310,2013-01-05 12:53:00
8:03 AM,10.4,1.4,67,29.76,10.0,NW,16.1,27.6,N/A,,Mostly Cloudy,310,2013-01-05 13:03:00
8:12 AM,10.4,1.4,67,29.77,10.0,NW,19.6,24.2,N/A,,Scattered Clouds,310,2013-01-05 13:12:00
8:53 AM,10.0,-2.0,58,29.88,10.0,NW,20.7,32.2,N/A,,Scattered Clouds,310,2013-01-05 13:53:00
9:53 AM,9.0,-0.9,64,29.93,9.0,NW,16.1,31.1,N/A,,Mostly Cloudy,320,2013-01-05 14:53:00
10:30 AM,8.6,-4.0,57,29.90,10.0,NW,21.9,31.1,N/A,,Mostly Cloudy,320,2013-01-05 15:30:00
10:53 AM,9.0,-4.0,56,29.96,7.0,NW,23.0,34.5,N/A,,Mostly Cloudy,310,2013-01-05 15:53:00
11:53 AM,9.0,-4.0,56,29.98,9.0,WNW,25.3,36.8,N/A,,Scattered Clouds,300,2013-01-05 16:53:00
12:53 PM,10.0,-5.1,51,30.00,10.0,WNW,25.3,33.4,N/A,,Clear,290,2013-01-05 17:53:00
1:53 PM,10.0,-5.1,51,30.02,9.0,WNW,19.6,33.4,N/A,,Clear,300,2013-01-05 18:53:00
2:53 PM,9.0,-5.1,53,30.05,10.0,WNW,19.6,34.5,N/A,,Clear,300,2013-01-05 19:53:00
3:53 PM,7.0,-5.1,58,30.09,10.0,WNW,10.4,-,N/A,,Clear,300,2013-01-05 20:53:00
4:53 PM,5.0,-6.0,61,30.11,10.0,WNW,10.4,-,N/A,,Clear,300,2013-01-05 21:53:00
5:53 PM,3.9,-7.1,60,30.13,10.0,WNW,8.1,-,N/A,,Clear,290,2013-01-05 22:53:00
6:53 PM,3.0,-7.1,63,30.16,10.0,WNW,8.1,-,N/A,,Clear,290,2013-01-05 23:53:00
7:53 PM,1.9,-8.0,63,30.17,10.0,WNW,5.8,-,N/A,,Clear,290,2013-01-06 00:53:00
8:53 PM,1.9,-7.1,66,30.16,10.0,NW,4.6,-,N/A,,Clear,310,2013-01-06 01:53:00
9:53 PM,1.9,-7.1,66,30.17,10.0,West,4.6,-,N/A,,Clear,260,2013-01-06 02:53:00
10:53 PM,-0.9,-7.1,75,30.16,10.0,SW,3.5,-,N/A,,Clear,230,2013-01-06 03:53:00
11:53 PM,-2.0,-7.1,79,30.15,10.0,SSW,4.6,-,N/A,,Clear,200,2013-01-06 04:53:00